Zurück zum Katalog

COSMOS 1375 DEB

AktivLEO
NORAD 19473·DEBRIS·🇷🇺 Russia

Gestartet Jun 6, 1982 von Plesetsk Cosmodrome

Loading…

Nächste Überflüge (nächste 24 Stunden)

TLE

AktuellSource: Space-Track

Epoche: Sep 14, 2026, 10:37 UTC

1 19473U 82055BM  26257.44271926  .00000670  00000-0  56057-3 0  9990
2 19473  65.8231  62.5120 0028998 196.7475 190.7397 13.94804215978560

Verfolge COSMOS 1375 DEB in Echtzeit mit AllMySat

Download on the App Store